Imperial, CA

1:12 AM PDT on October 23, 2019 (GMT -0700)
Imperial County

Weather History for KIPL - September, 2019

Change the Weather History Date:

Tuesday, September 17, 2019

  Actual Average Record
Temperature  
Mean Temperature 86 °F -  
Max Temperature 100 °F 100 °F 111 °F (1998)
Min Temperature 73 °F 71 °F 57 °F (2006)
Cooling Degree Days 22    
Growing Degree Days 36 (Base 50)    
Moisture  
Dew Point 35 °F    
Average Humidity 17    
Maximum Humidity 35    
Minimum Humidity 6    
Precipitation  
Precipitation 0.00 in - - ()
Sea Level Pressure  
Sea Level Pressure 29.79 in    
Wind  
Wind Speed 7 mph (WNW)    
Max Wind Speed 20 mph    
Max Gust Speed 30 mph    
Visibility 10 miles    
Events      
Averages and records for this station are not official NWS values.
T = Trace of Precipitation, MM = Missing Value Source: NWS Daily Summary

Daily Weather History Graph

Daily Weather History Graph

Search for Another Location

Airport or City:

Astronomy

Sep. 17, 2019 Rise Set
Actual Time 6:27 AM PDT 6:45 PM PDT
Civil Twilight 6:02 AM PDT 7:10 PM PDT
Nautical Twilight 5:33 AM PDT 7:39 PM PDT
Astronomical Twilight 5:04 AM PDT 8:08 PM PDT
Moon 9:01 PM PDT (9/17) 9:27 AM PDT (9/17)
Length of Visible Light 13h 08m
Length of Day
12h 18m
Waning Gibbous, 88% of the Moon is Illuminated
Sep 17
Waning Gibbous
Sep 21
Last Quarter
Sep 28
New
Oct 5
First Quarter
Oct 13
Full

Hourly Weather History & Observations

Time (PDT) Temp. Dew Point Humidity Pressure Visibility Wind Dir Wind Speed Gust Speed Precip Events Conditions
12:53 AM 87.1 °F 21.0 °F 9% 29.78 in 10.0 mi Variable 5.8 mph - N/A   Clear
1:53 AM 84.9 °F 24.1 °F 11% 29.78 in 10.0 mi Calm Calm - N/A   Clear
2:53 AM 79.0 °F 32.0 °F 18% 29.79 in 10.0 mi ESE 6.9 mph - N/A   Clear
3:53 AM 79.0 °F 35.1 °F 20% 29.80 in 10.0 mi ESE 5.8 mph - N/A   Clear
4:53 AM 73.0 °F 44.1 °F 35% 29.81 in 10.0 mi West 5.8 mph - N/A   Clear
5:53 AM 73.9 °F 39.0 °F 28% 29.82 in 10.0 mi Calm Calm - N/A   Clear
6:53 AM 73.9 °F 39.9 °F 29% 29.84 in 10.0 mi NNW 3.5 mph - N/A   Clear
7:53 AM 81.0 °F 36.0 °F 20% 29.85 in 10.0 mi Calm Calm - N/A   Clear
8:53 AM 87.1 °F 33.1 °F 15% 29.85 in 10.0 mi WNW 4.6 mph - N/A   Clear
9:53 AM 91.9 °F 23.0 °F 8% 29.86 in 10.0 mi NW 3.5 mph - N/A   Clear
10:53 AM 95.0 °F 19.0 °F 6% 29.85 in 10.0 mi Calm Calm - N/A   Clear
11:53 AM 97.0 °F 30.9 °F 10% 29.83 in 10.0 mi WNW 9.2 mph - N/A   Clear
12:53 PM 99.0 °F 28.0 °F 8% 29.81 in 10.0 mi WNW 10.4 mph 18.4 mph N/A   Clear
1:53 PM 100.0 °F 37.9 °F 12% 29.78 in 10.0 mi WNW 13.8 mph 24.2 mph N/A   Clear
2:53 PM 100.0 °F 39.0 °F 12% 29.76 in 9.0 mi West 18.4 mph 29.9 mph N/A   Clear
3:53 PM 99.0 °F 41.0 °F 14% 29.74 in 10.0 mi West 19.6 mph 26.5 mph N/A   Clear
4:53 PM 97.0 °F 43.0 °F 16% 29.73 in 10.0 mi West 17.3 mph 25.3 mph N/A   Clear
5:53 PM 93.9 °F 45.0 °F 18% 29.73 in 10.0 mi West 13.8 mph - N/A   Clear
6:53 PM 91.0 °F 45.0 °F 20% 29.73 in 10.0 mi West 17.3 mph 23.0 mph N/A   Clear
7:53 PM 88.0 °F 39.0 °F 18% 29.74 in 10.0 mi West 18.4 mph - N/A   Clear
8:53 PM 84.0 °F 39.0 °F 20% 29.78 in 10.0 mi WNW 4.6 mph - N/A   Clear
9:53 PM 84.0 °F 39.9 °F 21% 29.79 in 10.0 mi WSW 8.1 mph - N/A   Clear
10:53 PM 81.0 °F 39.9 °F 23% 29.78 in 10.0 mi West 10.4 mph - N/A   Clear
11:53 PM 81.0 °F 33.1 °F 18% 29.76 in 10.0 mi West 13.8 mph - N/A   Clear